Regional Weather Roundup
Issued by NWS Newport/Morehead, NC

Current Version | Previous Version | Text Only | Print | Product List | Glossary Off
Versions: 1 2 3 4 5 6 7 8 9 10 11 12 13 14 15 16 17 18 19 20 21 22 23 24 25 26 27 28 29 30 31 32 33 34 35 36 37 38 39 40 41 42 43 44 45 46 47 48 49 50
000 ASUS42 KMHX 300425 RWRMHX WEATHER ROUNDUP FOR EASTERN NORTH CAROLINA NATIONAL WEATHER SERVICE NEWPORT/MOREHEAD CITY NC 1200 AM EDT MON MAY 30 2016 NOTE: "FAIR" INDICATES FEW OR NO CLOUDS BELOW 12,000 FEET WITH NO SIGNIFICANT WEATHER AND/OR OBSTRUCTIONS TO VISIBILITY NCZ015>017-031-032-045>047-102-103-300500- NORTH COAST CITY SKY/WX TMP DP RH WIND PRES REMARKS EDENTON CLOUDY N/A N/A N/A SE6 30.05S ELIZABETH CITY LGT RAIN 74 72 93 S7 30.05S KITTY HAWK RAIN 73 71 92 CALM 30.05S MANTEO NOT AVBL $$ NCZ045>047-081-094-103-104-300500- CENTRAL COAST CITY SKY/WX TMP DP RH WIND PRES REMARKS FRISCO CLOUDY 75 72 90 S8 30.05F $$ NCZ095-097-098-100-101-300500- SOUTHERN COAST CITY SKY/WX TMP DP RH WIND PRES REMARKS BEAUFORT PTCLDY 75 73 93 SE5 30.03S CEDAR ISLAND NOT AVBL JACKSONVILLE PTCLDY 75 72 90 SE5 30.01S PINEY ISLAND MOCLDY N/A N/A N/A SE6 30.03F WILMINGTON CLOUDY 74 72 93 E3 29.99F $$ NCZ011>013-027>030-043-044-078>080-089-090>093-098-300500- COASTAL PLAIN CITY SKY/WX TMP DP RH WIND PRES REMARKS AHOSKIE CLOUDY 71 70 96 CALM 30.04S CLINTON PTCLDY 73 73 100 CALM 30.01F ELIZABETHTOWN CLEAR 71 71 100 CALM 29.99S GOLDSBORO CLOUDY 71 71 100 E3 30.01S GREENVILLE CLOUDY 73 72 94 CALM 30.05R HAVELOCK RAIN 74 72 93 SE3 30.03F KENANSVILLE CLOUDY 72 71 98 CALM 30.02F FOG KINSTON MOCLDY 74 72 93 E3 30.03S NEW BERN CLOUDY 74 71 91 CALM 30.03F RICHLANDS PTCLDY 73 72 96 CALM 30.02S ROCKY MOUNT PTCLDY 71 70 96 CALM 30.03S WASHINGTON LGT RAIN 74 72 94 SE5 30.03S WHITEVILLE PTCLDY 72 70 93 CALM 29.98S $$ AMZ130-135-150-152-154-156-158-170-250-252-270-ANZ085-086-088-633-658-670-300500- MARINE OBSERVATIONS STATION/POSITION TIME TEMP WIND PRES WAVE SWELL AIR SEA DIR/SP/G HT/PER HT/PER (UTC) (F) (DEG/KT/KT) (MB) (FT/S) (FT/S) CHESAPEAKE LIGHT 0400 71 160/ 20/ 20 1017.9 64 E VA BEACH 0350 69 64 160/ 10/ 12 1018.2 4/ 7 3/ 7 DUCK 0400 68 59 140/ 8/ 8 1017.1 2 E DUCK 0311 63 N/A 3/ 8 OREGON INLET 0400 74 80 150/ 9/ 15 1017.7 13E OREGON INLT 0400 68 N/A 5/ 7 3/ 7 HATTERAS CG 0400 76 77 150/ 6/ 9 1017.2 DIAMOND BUOY 0350 78 81 160/ 21/ 27 1017.1 5/ 8 2/19 CAPE LOOKOUT 0400 76 150/ 9/ 10 1016.5 BEAUFORT LAB 0400 76 76 150/ 4/ 5 1016.0 30 SE NEW RVR IN 0325 75 N/A 6/ 7 27 SE WRIGHTSVLE 0408 78 76 180/ 14/ 19 1015.5 5 SE WRIGHTSVLE 0408 76 76 170/ 8/ 12 1016.2 225 S CAPE HAT 0350 75 76 130/ 14/ 17 1017.7 5/ 8 3/ 8 41 SE CHARLESTON 0350 73 77 190/ 19/ 23 1012.8 6/ 7 $$

USA.gov is the U.S. government's official web portal to all federal, state and local government web resources and services.